Showing default

CENTISPACE-1 S7, 62576

Orbit data source: Space-Track

CENTISPACE-1 S7, 62576 is a payload satellite owned by Centispace (CN) in LEO that was launched on Mon, 13 Jan 2025 UTC via a JIELONG-3 launch vehicle from the Yellow Sea Launch Area, China (YSLA). Payload-class satellites include a variety of spacecraft equipped with specific instruments for various scientific and technological missions. These include communications satellites like Starlink; space stations such as the ISS; scientific satellites like the Hubble; Earth observation satellites from companies like Planet Labs, Umbra, and HawkEye 360; GPS; miniature CubeSats for education and research; and military/defense satellites.

Loading next visibility...
Identifier
62576, 2025-007B
Orbit
LEO
Country
Flag of CNCN / PRC
Related business
Manufacturer
DFH Shenzhen
Mission
Operational Commercial Nav/Com
Bus & Motor
WK01, Unknown motor
Mass
140 kg wet, 140 kg dry
Launch date (UTC)
2025-01-13 (11 months ago)
Launch vehicle
JIELONG-3
Launch site
Yellow Sea Launch Area, China (YSLA)
Object type
Payload
Rocket body
Debris
Shape & HBR
Box + 2 Pan, 0.9 m
Radar Cross Section
0.833 m², Medium (>0.1 m² and < 1m²)

Expand to show TLE details & history
Last TLE update: 7 hours ago

TLE from 7 hours ago
0 CENTISPACE-1 S7
1 62576U 25007B   25351.96996571 -.00000406  00000-0 -12555-3 0  9991
2 62576  54.9764 215.6117 0008900 289.1791  70.8218 14.16568743 49521
Epoch: 2025-12-17T23:16Z
TLE epoch observation values (Epoch: 2025-12-17T23:16:45.037Z)
Latitude
-0.00003°
Longitude
139.59183°
Altitude
835.915 km
Speed
7.437 km/s
True Right ascension
14h 22m 26s
True Declination
0° 00' 00"
Sunlit
Object was in daylight at epoch
Visualization orbit readout
Latitude
Unknown
Longitude
Unknown
Altitude
Unknown
Speed
Unknown
Apparent Right ascension
Unknown
Apparent Declination
Unknown
Sunlit
N/A
Visualization observer readout
Local Sidereal Time
05:32:59
Azimuth
Unknown
Elevation
Unknown
Doppler factor
Unknown
Orbital elements
Apogee altitude
843.37 km
Perigee altitude
830.527 km
Semi-major axis
7,215.086 km
Eccentricity
0.00089
Inclination
54.9764°
RAAN
215.6117°
Arg. of periapsis
289.1791°
True anomaly
70.91816°
Mean anomaly
70.8218°
Eccentric anomaly
70.86998°
Mean motion
3.54145 °/min
Orbital period
101.65 mins
BSTAR
-0.00012555
Loading maneuver chart data...
Computing Atmospheric mass density...
Loading historical data...
Loading historical data...
Loading historical data...
Loading historical data...
Loading historical data...
Loading historical data...
Loading historical data...

Documentation

Showing up to 5 results
|